User: anonymous
Location: Livonia
(42.3680°N, 83.3530°W)
Time: 20:29:50
(UTC-04:00)
Language:

MOZ.5/SAFIR/RUBIN 5/SL-8 - Orbit

View from above orbital plane
View from above orbital plane
View from above satellite
View from above satellite

Ground track
Ground track

The orbit data is extracted from the following two-line orbital elements,

1 28898U 05043G   14293.15243853  .00000771  00000-0  17086-3 0  9571
2 28898 097.8356 115.8304 0019895 006.6982 109.8682 14.59580415478151
Epoch (UTC): 20 October 2014 03:39:30
Eccentricity: 0.0019895
inclination: 97.8356°
perigee height: 680 km
apogee height: 708 km
right ascension of ascending node: 115.8304°
argument of perigee: 6.6982°
revolutions per day: 14.59580415
mean anomaly at epoch: 109.8682°
orbit number at epoch: 47815

The dashed part of the orbit path shows where the satellite is in the earth's shadow,  

DLR